When you browse on this site, cookies collect data to enhance your experience and personalize the content and advertising you see.
Visit our Privacy Policy to learn more. By continuing to use the site, you agree to this use of cookies and data.
  • In Czech Republic
  • List of Countries
  • For 7 days
  • Water Temperature
  • Weather Map
  • Weather Widgets
  • user-avatar
    Login

    Hourly Weather Midwest City

    Today, 23 September, Monday

    Time Temperature Precipitation Wind Pressure Humidity
    00:00 +24°C° 0 mm 1 mps 729 mmHg 94%
    01:00 +24°C° 0 mm 2 mps 729 mmHg 94%
    02:00 +22°C° 0 mm 3 mps 729 mmHg 95%
    03:00 +22°C° 0 mm 3 mps 729 mmHg 95%
    04:00 +21°C° 0 mm 3 mps 729 mmHg 95%
    05:00 +20°C° 0 mm 3 mps 729 mmHg 94%
    06:00 +20°C° 0 mm 3 mps 729 mmHg 94%
    07:00 +21°C° 0 mm 3 mps 729 mmHg 91%
    08:00 +22°C° 0 mm 3 mps 730 mmHg 88%
    09:00 +24°C° 0 mm 3 mps 730 mmHg 85%
    10:00 +26°C° 0 mm 3 mps 730 mmHg 79%
    11:00 +28°C° 0 mm 3 mps 730 mmHg 73%
    12:00 +30°C° 0 mm 3 mps 730 mmHg 68%
    13:00 +30°C° 0 mm 3 mps 730 mmHg 67%
    14:00 +30°C° 0 mm 3 mps 729 mmHg 66%
    15:00 +30°C° 0 mm 4 mps 729 mmHg 65%
    16:00 +29°C° 0.1 mm 4 mps 729 mmHg 70%
    17:00 +28°C° 0.1 mm 3 mps 728 mmHg 75%
    18:00 +28°C° 0.1 mm 3 mps 728 mmHg 80%
    19:00 +27°C° 0.6 mm 3 mps 728 mmHg 84%
    20:00 +26°C° 0.6 mm 2 mps 728 mmHg 87%
    21:00 +25°C° 0.6 mm 2 mps 729 mmHg 91%
    22:00 +24°C° 0.3 mm 2 mps 728 mmHg 92%
    23:00 +24°C° 0.3 mm 2 mps 728 mmHg 93%

    Tomorrow, 24 September, Tuesday

    Time Temperature Precipitation Wind Pressure Humidity
    00:00 +24°C° 0.3 mm 2 mps 727 mmHg 94%
    01:00 +24°C° 0 mm 2 mps 727 mmHg 93%
    02:00 +23°C° 0 mm 2 mps 727 mmHg 93%
    03:00 +23°C° 0 mm 2 mps 726 mmHg 92%
    04:00 +23°C° 1 mm 2 mps 726 mmHg 93%
    05:00 +23°C° 1 mm 2 mps 726 mmHg 94%
    06:00 +23°C° 1 mm 2 mps 726 mmHg 96%
    07:00 +24°C° 1.8 mm 2 mps 726 mmHg 93%
    08:00 +25°C° 1.8 mm 2 mps 726 mmHg 91%
    09:00 +26°C° 1.8 mm 2 mps 727 mmHg 88%
    10:00 +28°C° 2.3 mm 2 mps 726 mmHg 79%
    11:00 +29°C° 2.3 mm 3 mps 726 mmHg 70%
    12:00 +31°C° 2.3 mm 3 mps 726 mmHg 62%
    13:00 +31°C° 0.5 mm 3 mps 725 mmHg 60%
    14:00 +33°C° 0.5 mm 3 mps 725 mmHg 58%
    15:00 +33°C° 0.5 mm 3 mps 724 mmHg 56%
    16:00 +32°C° 0 mm 4 mps 724 mmHg 62%
    17:00 +30°C° 0 mm 4 mps 723 mmHg 68%
    18:00 +29°C° 0 mm 5 mps 723 mmHg 74%
    19:00 +28°C° 0 mm 5 mps 723 mmHg 75%
    20:00 +27°C° 0 mm 5 mps 723 mmHg 76%
    21:00 +27°C° 0 mm 6 mps 723 mmHg 77%
    22:00 +26°C° 0.1 mm 6 mps 723 mmHg 79%
    23:00 +26°C° 0.1 mm 6 mps 723 mmHg 81%

    Day after tomorrow, 25 September, Wednesday

    Time Temperature Precipitation Wind Pressure Humidity
    00:00 +24°C° 0.1 mm 6 mps 723 mmHg 83%
    01:00 +25°C° 0.3 mm 4 mps 723 mmHg 84%
    02:00 +25°C° 0.3 mm 3 mps 723 mmHg 86%
    03:00 +24°C° 0.3 mm 2 mps 723 mmHg 87%
    04:00 +24°C° 0.2 mm 2 mps 723 mmHg 88%
    05:00 +24°C° 0.2 mm 3 mps 723 mmHg 88%
    06:00 +24°C° 0.2 mm 3 mps 723 mmHg 89%
    07:00 +25°C° 0 mm 4 mps 723 mmHg 84%
    08:00 +27°C° 0 mm 5 mps 724 mmHg 78%
    09:00 +28°C° 0 mm 6 mps 724 mmHg 73%
    10:00 +30°C° 0 mm 6 mps 724 mmHg 69%
    11:00 +32°C° 0 mm 6 mps 724 mmHg 64%
    12:00 +34°C° 0 mm 5 mps 724 mmHg 60%
    13:00 +34°C° 1 mm 5 mps 724 mmHg 58%
    14:00 +35°C° 1 mm 4 mps 723 mmHg 56%
    15:00 +35°C° 1 mm 4 mps 723 mmHg 55%
    16:00 +34°C° 0.2 mm 3 mps 723 mmHg 59%
    17:00 +33°C° 0.2 mm 3 mps 723 mmHg 64%
    18:00 +31°C° 0.2 mm 2 mps 723 mmHg 69%
    19:00 +30°C° 0.2 mm 3 mps 723 mmHg 72%
    20:00 +28°C° 0.2 mm 3 mps 723 mmHg 76%
    21:00 +27°C° 0.2 mm 4 mps 724 mmHg 80%
    22:00 +27°C° 0.7 mm 3 mps 724 mmHg 82%
    23:00 +26°C° 0.7 mm 2 mps 724 mmHg 84%

    26 September, Thursday

    Time Temperature Precipitation Wind Pressure Humidity
    00:00 +26°C° 0.7 mm 1 mps 724 mmHg 85%
    01:00 +25°C° 0.3 mm 1 mps 724 mmHg 87%
    02:00 +25°C° 0.3 mm 2 mps 724 mmHg 88%
    03:00 +24°C° 0.3 mm 2 mps 725 mmHg 90%
    04:00 +24°C° 0.5 mm 2 mps 725 mmHg 91%
    05:00 +24°C° 0.5 mm 2 mps 725 mmHg 92%
    06:00 +24°C° 0.5 mm 2 mps 725 mmHg 94%
    07:00 +25°C° 0.1 mm 2 mps 725 mmHg 90%
    08:00 +26°C° 0.1 mm 2 mps 726 mmHg 86%
    09:00 +27°C° 0.1 mm 2 mps 726 mmHg 82%
    10:00 +28°C° 0 mm 3 mps 726 mmHg 75%
    11:00 +30°C° 0 mm 4 mps 726 mmHg 68%
    12:00 +33°C° 0 mm 5 mps 725 mmHg 62%
    13:00 +33°C° 0 mm 5 mps 725 mmHg 60%
    14:00 +34°C° 0 mm 6 mps 724 mmHg 57%
    15:00 +35°C° 0 mm 6 mps 723 mmHg 55%
    16:00 +34°C° 0 mm 6 mps 723 mmHg 60%
    17:00 +32°C° 0 mm 5 mps 723 mmHg 64%
    18:00 +30°C° 0 mm 5 mps 722 mmHg 68%
    19:00 +30°C° 0 mm 6 mps 722 mmHg 68%
    20:00 +29°C° 0 mm 7 mps 723 mmHg 68%
    21:00 +29°C° 0 mm 8 mps 723 mmHg 67%
    22:00 +28°C° 0 mm 8 mps 722 mmHg 67%
    23:00 +28°C° 0 mm 8 mps 722 mmHg 67%

    27 September, Friday

    Time Temperature Precipitation Wind Pressure Humidity
    00:00 +28°C° 0 mm 8 mps 722 mmHg 67%
    01:00 +27°C° 0 mm 8 mps 722 mmHg 68%
    02:00 +27°C° 0 mm 9 mps 722 mmHg 68%
    03:00 +26°C° 0 mm 9 mps 722 mmHg 68%
    04:00 +26°C° 0 mm 9 mps 721 mmHg 70%
    05:00 +26°C° 0 mm 9 mps 721 mmHg 72%
    06:00 +26°C° 0 mm 9 mps 721 mmHg 74%
    07:00 +27°C° 0 mm 9 mps 721 mmHg 73%
    08:00 +27°C° 0 mm 10 mps 721 mmHg 71%
    09:00 +28°C° 0 mm 10 mps 722 mmHg 70%
    10:00 +31°C° 0 mm 10 mps 722 mmHg 66%
    11:00 +32°C° 0 mm 9 mps 722 mmHg 61%
    12:00 +34°C° 0 mm 8 mps 723 mmHg 57%
    13:00 +34°C° 0 mm 7 mps 723 mmHg 56%
    14:00 +34°C° 0 mm 6 mps 723 mmHg 54%
    15:00 +34°C° 0 mm 6 mps 723 mmHg 53%
    16:00 +30°C° 0.5 mm 6 mps 723 mmHg 62%
    17:00 +26°C° 0.5 mm 7 mps 723 mmHg 72%
    18:00 +21°C° 0.5 mm 7 mps 723 mmHg 82%
    19:00 +20°C° 0.5 mm 7 mps 724 mmHg 84%
    20:00 +18°C° 0.5 mm 7 mps 724 mmHg 86%
    21:00 +16°C° 0.5 mm 6 mps 725 mmHg 88%
    22:00 +16°C° 0.9 mm 6 mps 725 mmHg 89%
    23:00 +16°C° 0.9 mm 5 mps 725 mmHg 90%

    28 September, Saturday

    Time Temperature Precipitation Wind Pressure Humidity
    00:00 +15°C° 0.9 mm 5 mps 725 mmHg 91%
    01:00 +15°C° 1.2 mm 5 mps 725 mmHg 92%
    02:00 +15°C° 1.2 mm 4 mps 725 mmHg 92%
    03:00 +15°C° 1.2 mm 4 mps 725 mmHg 92%
    04:00 +15°C° 0.7 mm 4 mps 725 mmHg 92%
    05:00 +15°C° 0.7 mm 4 mps 725 mmHg 93%
    06:00 +17°C° 0.7 mm 3 mps 725 mmHg 93%
    07:00 +17°C° 1.2 mm 3 mps 726 mmHg 93%
    08:00 +17°C° 1.2 mm 3 mps 726 mmHg 93%
    09:00 +17°C° 1.2 mm 3 mps 727 mmHg 93%
    10:00 +19°C° 0.2 mm 3 mps 727 mmHg 90%
    11:00 +20°C° 0.2 mm 2 mps 727 mmHg 88%
    12:00 +21°C° 0.2 mm 2 mps 727 mmHg 85%
    13:00 +23°C° 0.1 mm 2 mps 727 mmHg 84%
    14:00 +24°C° 0.1 mm 2 mps 726 mmHg 84%
    15:00 +25°C° 0.1 mm 3 mps 726 mmHg 83%
    16:00 +24°C° 0.8 mm 2 mps 725 mmHg 86%
    17:00 +24°C° 0.8 mm 2 mps 725 mmHg 88%
    18:00 +24°C° 0.8 mm 1 mps 725 mmHg 91%
    19:00 +24°C° 0.8 mm 2 mps 725 mmHg 92%
    20:00 +23°C° 0.8 mm 2 mps 726 mmHg 93%
    21:00 +23°C° 0.8 mm 2 mps 726 mmHg 94%
    22:00 +22°C° 0.3 mm 3 mps 726 mmHg 93%
    23:00 +22°C° 0.3 mm 3 mps 726 mmHg 93%
    Show more